Regional Weather Roundup
Issued by NWS

Home | Current Version | Previous Version | Graphics & Text | Print | Product List | Glossary On
Versions: 1 2 3 4 5 6 7 8 9 10 11 12 13 14 15 16 17 18 19 20 21 22 23 24 25 26 27 28 29 30 31 32 33 34 35 36 37 38 39 40 41 42 43 44 45 46 47 48 49 50
702
ASUS45 KBOI 212310
RWRID

IDAHO REGIONAL WEATHER ROUNDUP
NATIONAL WEATHER SERVICE BOISE ID
500 PM MDT TUE MAR 21 2017

NOTE: "FAIR" INDICATES FEW OR NO CLOUDS BELOW 12000 FEET
WITH NO SIGNIFICANT WEATHER AND/OR OBSTRUCTIONS TO VISIBILITY

IDZ012-014-220000-
SOUTHWEST IDAHO


CITY           SKY/WX    TMP DP  RH WIND       PRES   REMARKS
BOISE          PTSUNNY   57  49  74 SE6       29.79F
CALDWELL       PTSUNNY   59  50  72 NE7       29.79F
MOUNTAIN HOME  CLOUDY    63  45  51 NE8       29.78S
$$

IDZ016-017-220000-
SOUTHCENTRAL IDAHO


CITY           SKY/WX    TMP DP  RH WIND       PRES   REMARKS
BURLEY         CLOUDY    73  27  18 S10G24    29.75F
JEROME         CLOUDY    68  38  33 N3        29.78F
TWIN FALLS     CLOUDY    65  39  38 N5        29.78F
$$

IDZ019>023-220000-
SOUTHEAST IDAHO


CITY           SKY/WX    TMP DP  RH WIND       PRES   REMARKS
IDAHO FALLS    CLOUDY    66  32  28 SW16      29.84F
POCATELLO      MOSUNNY   69  34  27 S17G23    29.82F
REXBURG        CLOUDY    62  32  32 S15G22    29.85F
$$

IDZ006-010-011-018-031-032-220000-
CENTRAL IDAHO MOUNTAINS


CITY           SKY/WX    TMP DP  RH WIND       PRES   REMARKS
MCCALL         LGT RAIN  43  39  86 CALM      29.82S
HAILEY         CLOUDY    55  36  47 W7        29.86F
STANLEY          N/A     47  33  58 S5        29.89R
SALMON         CLOUDY    59  39  47 CALM      29.74F
CHALLIS        PTSUNNY   62  31  31 S18       29.78S
$$

IDZ002-004-006-007-026-220000-
NORTHERN IDAHO


CITY           SKY/WX    TMP DP  RH WIND       PRES   REMARKS
LEWISTON       PTSUNNY   55  48  77 W5        29.71F
LOWELL           N/A     49  45  86 CALM      29.80F
COEUR D`ALENE  CLOUDY    46  37  71 N20       29.76F
MULLAN PASS    RAIN      35  35 100 S8        29.80S VSB 1/4 WCI  29
$$




USA.gov is the U.S. government's official web portal to all federal, state and local government web resources and services.